コワル-ムルコス彗星

143P/Kowal-Mrkos (2018)

English version
Home page
Updated on March 25, 2017

---------------------------------------------------------------------

・ プロフィール

・ 写真集

・ 軌道要素

Epoch 2018 May 2.0 TT = JDT 2458240.5
T 2018 May 7.30250 TT                                   Kobayashi
q   2.5322555            (2000.0)            P               Q
n   0.11065435     Peri.  320.86792     -0.89555489     +0.43869029
a   4.2969180      Node   245.30336     -0.38492091     -0.84768375
e   0.4106810      Incl.    4.69592     -0.22319797     -0.29830033
P   8.91
From 400 observations 1984 Apr. 23-2015 Jan. 22, mean residual 0".5.

・ 星図

・ 光度変化

        H = 13.6  G = 0.15

---------------------------------------------------------------------

軌道要素はM.P.E.C. 2015-M77に掲載されたものです。
星図はステラナビゲータ Ver.8 (アストロアーツ) で作成したものです。
光度グラフはComet for Windowsで作成したものです。

---------------------------------------------------------------------

Copyright(C) Seiichi Yoshida (comet@aerith.net). All rights reserved.